GW0200 Weather Reports


time (UTC)temp
C
wind
direction
speed
KPH
gust
KPH
rain 1hr
cm
rain 24hr
cm
rain mn
cm
humidity
%
barometer
mb
20260508054425 7 183 0.0 3.2 0.00 0.00 0.00 72 1007.2
20260508053919 7 188 0.0 1.6 0.00 0.00 0.00 72 1007.3
20260508053415 7 187 0.0 1.6 0.00 0.00 0.00 71 1007.3
20260508052908 7 187 0.0 1.6 0.00 0.00 0.00 71 1007.4
20260508052401 7 187 0.0 3.2 0.00 0.00 0.00 70 1007.5
20260508052126 8 187 1.6 4.8 0.00 0.00 0.00 70 1007.5
20260508051622 8 194 1.6 6.4 0.00 0.00 0.00 70 1007.5
20260508051114 7 227 1.6 6.4 0.00 0.00 0.00 69 1007.5
20260508050339 7 165 1.6 6.4 0.00 0.00 0.00 70 1007.5
20260508045831 7 165 1.6 6.4 0.00 0.00 0.00 70 1007.5
20260508045326 7 217 1.6 6.4 0.00 0.00 0.00 70 1007.6
20260508044819 7 171 1.6 6.4 0.00 0.00 0.00 71 1007.6
20260508044314 7 200 1.6 6.4 0.00 0.00 0.00 71 1007.6
20260508043808 6 192 0.0 3.2 0.00 0.00 0.00 72 1007.6
20260508043303 6 198 0.0 4.8 0.00 0.00 0.00 72 1007.6
20260508043258 6 225 0.0 4.8 0.00 0.00 0.00 72 1007.6
20260508042250 6 193 1.6 6.4 0.00 0.00 0.00 72 1007.6
20260508041744 6 173 1.6 6.4 0.00 0.00 0.00 71 1007.6
20260508041237 6 190 1.6 4.8 0.00 0.00 0.00 71 1007.6
20260508040731 6 186 1.6 4.8 0.00 0.00 0.00 72 1007.7
20260508040458 5 225 0.0 3.2 0.00 0.00 0.00 73 1007.6
20260508035720 5 219 0.0 4.8 0.00 0.00 0.00 74 1007.5
20260508035214 5 181 0.0 4.8 0.00 0.00 0.00 74 1007.5
20260508034709 5 150 0.0 1.6 0.00 0.00 0.00 75 1007.5
20260508034202 5 150 0.0 0.0 0.00 0.00 0.00 76 1007.6
20260508033926 5 150 0.0 0.0 0.00 0.00 0.00 76 1007.5
20260508033150 5 150 0.0 0.0 0.00 0.00 0.00 77 1007.5
20260508032644 5 150 0.0 0.0 0.00 0.00 0.00 77 1007.5
20260508032141 5 150 0.0 0.0 0.00 0.00 0.00 77 1007.5
20260508032136 5 150 0.0 1.6 0.00 0.00 0.00 77 1007.5
20260508031126 5 150 0.0 1.6 0.00 0.00 0.00 77 1007.4
20260508030622 5 150 0.0 1.6 0.00 0.00 0.00 77 1007.4
20260508030616 5 150 0.0 0.0 0.00 0.00 0.00 77 1007.5
20260508025608 6 150 0.0 0.0 0.00 0.00 0.00 77 1007.6
20260508025103 6 150 0.0 0.0 0.00 0.00 0.00 76 1007.6
20260508024556 6 150 0.0 0.0 0.00 0.00 0.00 75 1007.5
20260508024050 6 150 0.0 0.0 0.00 0.00 0.00 75 1007.5
20260508023543 6 150 0.0 0.0 0.00 0.00 0.00 75 1007.5
20260508023309 6 150 0.0 0.0 0.00 0.00 0.00 74 1007.5
20260508022532 6 150 0.0 0.0 0.00 0.00 0.00 73 1007.6
20260508022026 6 150 0.0 0.0 0.00 0.00 0.00 72 1007.5
20260508021519 6 150 0.0 0.0 0.00 0.00 0.00 72 1007.5
20260508021013 6 150 0.0 0.0 0.00 0.00 0.00 71 1007.5
20260508020740 6 150 0.0 0.0 0.00 0.00 0.00 70 1007.4
20260508020005 7 150 0.0 0.0 0.00 0.00 0.00 69 1007.4
20260508015728 7 150 0.0 0.0 0.00 0.00 0.00 69 1007.4
20260508014952 7 150 0.0 0.0 0.00 0.00 0.00 68 1007.4
20260508014443 7 150 0.0 0.0 0.00 0.00 0.00 67 1007.3
20260508013937 7 150 0.0 0.0 0.00 0.00 0.00 66 1007.3
20260508013431 7 150 0.0 0.0 0.00 0.00 0.00 63 1007.3
20260508012926 7 150 0.0 0.0 0.00 0.00 0.00 61 1007.3
20260508012921 8 150 0.0 3.2 0.00 0.00 0.00 60 1007.3
20260508011913 8 150 0.0 3.2 0.00 0.00 0.00 59 1007.3
20260508011638 8 161 0.0 0.0 0.00 0.00 0.00 58 1007.3
20260508010902 8 161 0.0 1.6 0.00 0.00 0.00 57 1007.2
20260508010626 9 161 0.0 1.6 0.00 0.00 0.00 56 1007.2
20260508005851 9 162 0.0 3.2 0.00 0.00 0.00 55 1007.2
20260508005845 9 162 0.0 3.2 0.00 0.00 0.00 53 1007.1
20260508004837 9 233 0.0 1.6 0.00 0.00 0.00 53 1007.2
20260508004602 10 264 1.6 6.4 0.00 0.00 0.00 52 1007.2
20260508003825 10 307 1.6 8.0 0.00 0.00 0.00 52 1007.2
20260508003320 10 204 3.2 8.0 0.00 0.00 0.00 51 1007.1
20260508002814 10 243 1.6 8.0 0.00 0.00 0.00 52 1007.1
20260508002307 10 265 1.6 11.3 0.00 0.00 0.00 51 1007.1
20260508001802 10 220 1.6 11.3 0.00 0.00 0.00 51 1007.1
20260508001528 10 296 1.6 8.0 0.00 0.00 0.00 51 1007.0
20260508001021 10 288 3.2 11.3 0.00 0.00 0.00 50 1006.9
20260508000514 10 244 3.2 12.9 0.00 0.00 0.00 49 1006.9
20260508000008 10 288 3.2 12.9 0.00 0.00 0.00 49 1006.9
20260507235231 10 345 3.2 12.9 0.00 0.00 0.00 48 1006.9
20260507234727 11 63 3.2 16.1 0.00 0.00 0.00 49 1006.9
20260507234219 11 347 3.2 16.1 0.00 0.00 0.00 48 1006.8
20260507233944 11 269 3.2 12.9 0.00 0.00 0.00 48 1006.8
20260507233208 11 315 3.2 14.5 0.00 0.00 0.00 48 1006.9
20260507232705 11 355 3.2 14.5 0.00 0.00 0.00 46 1006.9
20260507232205 11 355 4.8 25.7 0.00 0.00 0.00 47 1006.9
20260507231705 11 323 4.8 25.7 0.00 0.00 0.00 46 1006.9
20260507231206 11 128 4.8 16.1 0.00 0.00 0.00 47 1006.9
20260507230705 11 259 6.4 17.7 0.00 0.00 0.00 47 1007.0
20260507230435 11 0 6.4 17.7 0.00 0.00 0.00 46 1007.0
20260507225705 11 291 6.4 25.7 0.00 0.00 0.00 47 1007.0
20260507225208 11 327 8.0 25.7 0.00 0.00 0.00 45 1007.0
20260507224713 11 160 4.8 19.3 0.00 0.00 0.00 47 1007.0
20260507224705 11 313 6.4 16.1 0.00 0.00 0.00 45 1006.9
20260507223706 11 355 6.4 19.3 0.00 0.00 0.00 46 1007.0
20260507223206 11 237 6.4 19.3 0.00 0.00 0.00 44 1007.0
20260507222706 12 108 8.0 22.5 0.00 0.00 0.00 43 1007.0
20260507222204 12 273 6.4 22.5 0.00 0.00 0.00 43 1007.0
20260507221710 12 299 4.8 19.3 0.00 0.00 0.00 44 1006.9
20260507221705 12 355 6.4 19.3 0.00 0.00 0.00 45 1007.0
20260507220932 12 304 4.8 20.9 0.00 0.00 0.00 47 1007.0
20260507220200 12 204 8.0 19.3 0.00 0.00 0.00 45 1006.9
20260507220153 12 101 8.0 20.9 0.00 0.00 0.00 45 1006.9
20260507215152 12 0 4.8 19.3 0.00 0.00 0.00 46 1006.8
20260507214652 12 306 4.8 20.9 0.00 0.00 0.00 48 1006.7
20260507214153 12 62 6.4 20.9 0.00 0.00 0.00 50 1006.7
20260507213659 12 345 6.4 27.4 0.00 0.00 0.00 53 1006.8
20260507213652 12 192 6.4 22.5 0.00 0.00 0.00 52 1006.8
20260507212653 12 350 8.0 27.4 0.00 0.00 0.00 51 1006.8
20260507212153 12 241 8.0 22.5 0.00 0.00 0.00 51 1006.8
20260507211654 12 16 6.4 20.9 0.00 0.00 0.00 53 1006.7
20260507211148 11 200 4.8 14.5 0.00 0.00 0.00 55 1006.5
20260507210649 11 324 4.8 16.1 0.00 0.00 0.00 57 1006.5
20260507210149 11 88 6.4 16.1 0.00 0.00 0.00 56 1006.4
20260507205650 11 321 4.8 16.1 0.00 0.00 0.00 57 1006.3
20260507205149 10 324 4.8 17.7 0.00 0.00 0.00 58 1006.3
20260507204649 10 348 6.4 17.7 0.00 0.00 0.00 58 1006.3
20260507204150 11 34 6.4 16.1 0.00 0.00 0.00 59 1006.4
20260507203649 11 27 6.4 16.1 0.00 0.00 0.00 57 1006.4
20260507203150 11 347 6.4 19.3 0.00 0.00 0.00 57 1006.4
20260507202645 11 189 6.4 19.3 0.00 0.00 0.00 56 1006.4
20260507202145 11 325 6.4 16.1 0.00 0.00 0.00 56 1006.6
20260507201644 11 254 8.0 22.5 0.00 0.00 0.00 57 1006.4
20260507201144 11 325 8.0 22.5 0.00 0.00 0.00 54 1006.3
20260507200644 11 311 6.4 19.3 0.00 0.00 0.00 53 1006.3
20260507200144 12 298 6.4 19.3 0.00 0.00 0.00 53 1006.4
20260507195644 12 313 6.4 19.3 0.00 0.00 0.00 52 1006.4
20260507195144 12 211 6.4 19.3 0.00 0.00 0.00 51 1006.5
20260507194919 12 10 4.8 14.5 0.00 0.00 0.00 53 1006.6
20260507194417 12 187 4.8 14.5 0.00 0.00 0.00 53 1006.6
20260507193642 12 355 4.8 17.7 0.00 0.00 0.00 53 1006.6
20260507193415 12 164 6.4 20.9 0.00 0.00 0.00 51 1006.7
20260507192643 12 0 6.4 20.9 0.00 0.00 0.00 51 1006.7
20260507192144 12 348 6.4 16.1 0.00 0.00 0.00 51 1006.6
20260507191640 12 319 4.8 16.1 0.00 0.00 0.00 51 1006.7
20260507191141 12 9 4.8 17.7 0.00 0.00 0.00 50 1006.8
20260507190640 12 52 6.4 17.7 0.00 0.00 0.00 52 1006.9
20260507190138 12 286 6.4 16.1 0.00 0.00 0.00 50 1006.9
20260507185909 12 355 6.4 16.1 0.00 0.00 0.00 51 1006.8
20260507185138 12 18 6.4 17.7 0.00 0.00 0.00 49 1006.9
20260507184909 12 318 6.4 17.7 0.00 0.00 0.00 49 1006.8
20260507184137 12 14 4.8 14.5 0.00 0.00 0.00 48 1006.9
20260507183634 12 0 4.8 12.9 0.00 0.00 0.00 47 1006.9
20260507183132 12 276 6.4 17.7 0.00 0.00 0.00 48 1006.9
20260507182632 12 256 6.4 17.7 0.00 0.00 0.00 45 1007.0
20260507182132 12 293 6.4 16.1 0.00 0.00 0.00 45 1007.0
20260507181630 12 323 8.0 16.1 0.00 0.00 0.00 49 1006.9
20260507181401 12 0 8.0 22.5 0.00 0.00 0.00 46 1006.9
20260507180630 12 55 6.4 22.5 0.00 0.00 0.00 47 1007.0
20260507180133 12 325 6.4 17.7 0.00 0.00 0.00 47 1007.0
20260507175629 12 101 6.4 20.9 0.00 0.00 0.00 46 1007.0
20260507175132 12 43 6.4 20.9 0.00 0.00 0.00 46 1007.0
20260507174629 12 280 6.4 19.3 0.00 0.00 0.00 48 1007.0
20260507174130 12 31 6.4 24.1 0.00 0.00 0.00 46 1007.1
20260507173628 12 294 6.4 24.1 0.00 0.00 0.00 50 1007.0
20260507173128 12 292 6.4 17.7 0.00 0.00 0.00 49 1007.0
20260507172629 12 16 6.4 19.3 0.00 0.00 0.00 49 1007.1
20260507172128 12 254 4.8 19.3 0.00 0.00 0.00 50 1007.1
20260507171622 12 180 4.8 16.1 0.00 0.00 0.00 55 1007.1
20260507171115 12 336 4.8 14.5 0.00 0.00 0.00 53 1007.1
20260507170608 12 290 4.8 14.5 0.00 0.00 0.00 53 1007.1
20260507165557 12 221 6.4 16.1 0.00 0.00 0.00 57 1007.0
20260507165050 12 240 4.8 17.7 0.00 0.00 0.00 58 1007.1
20260507164546 11 242 6.4 20.9 0.00 0.00 0.00 56 1007.1
20260507164039 12 261 6.4 20.9 0.00 0.00 0.00 53 1007.1
20260507163533 12 351 4.8 12.9 0.00 0.00 0.00 52 1007.0
20260507163026 12 229 4.8 16.1 0.00 0.00 0.00 51 1007.1
20260507162520 12 281 6.4 19.3 0.00 0.00 0.00 49 1007.1
20260507162245 12 86 6.4 19.3 0.00 0.00 0.00 53 1007.0
20260507161509 12 9 6.4 19.3 0.00 0.00 0.00 51 1007.0
20260507161504 12 276 4.8 16.1 0.00 0.00 0.00 55 1007.0
20260507160456 12 355 4.8 16.1 0.00 0.00 0.00 55 1007.0
20260507155951 12 290 4.8 16.1 0.00 0.00 0.00 53 1007.0
20260507155445 12 342 4.8 16.1 0.00 0.00 0.00 55 1007.0
20260507154941 11 236 4.8 11.3 0.00 0.00 0.00 58 1007.1
20260507154936 11 5 4.8 17.7 0.00 0.00 0.00 55 1007.1
20260507153927 11 150 4.8 17.7 0.00 0.00 0.00 56 1007.2
20260507153420 11 0 4.8 12.9 0.00 0.00 0.00 57 1007.2
20260507152916 11 34 4.8 16.1 0.00 0.00 0.00 54 1007.1
20260507152408 11 334 6.4 16.1 0.00 0.00 0.00 53 1007.1
20260507151902 11 332 4.8 16.1 0.00 0.00 0.00 55 1007.1
20260507151357 11 320 3.2 11.3 0.00 0.00 0.00 58 1007.2
20260507150851 11 277 3.2 16.1 0.00 0.00 0.00 56 1007.2
20260507150615 11 308 4.8 16.1 0.00 0.00 0.00 56 1007.1
20260507145838 11 281 4.8 14.5 0.00 0.00 0.00 56 1007.1
20260507145559 12 331 3.2 9.7 0.00 0.00 0.00 56 1007.1
20260507145332 12 0 4.8 14.5 0.00 0.00 0.00 55 1007.1
20260507144320 11 315 3.2 9.7 0.00 0.00 0.00 59 1007.1
20260507143814 11 191 3.2 12.9 0.00 0.00 0.00 55 1007.1
20260507143308 11 295 3.2 12.9 0.00 0.00 0.00 57 1007.1
20260507142803 11 15 4.8 9.7 0.00 0.00 0.00 61 1007.1
20260507142257 11 176 4.8 11.3 0.00 0.00 0.00 59 1007.2
20260507141752 11 290 4.8 11.3 0.00 0.00 0.00 59 1007.3
20260507141245 11 301 3.2 11.3 0.00 0.00 0.00 62 1007.3
20260507140739 11 5 1.6 9.7 0.00 0.00 0.00 65 1007.3
20260507140232 10 287 1.6 9.7 0.00 0.00 0.00 67 1007.3
20260507135958 10 334 1.6 9.7 0.00 0.00 0.00 65 1007.5
20260507135221 10 351 1.6 8.0 0.00 0.00 0.00 69 1007.5
20260507134715 10 150 3.2 8.0 0.00 0.00 0.00 68 1007.4
20260507134208 10 5 1.6 6.4 0.00 0.00 0.00 68 1007.6
20260507133935 10 291 3.2 6.4 0.00 0.00 0.00 69 1007.6
20260507133156 9 161 3.2 6.4 0.00 0.00 0.00 70 1007.6
20260507132651 9 215 3.2 8.0 0.00 0.00 0.00 70 1007.6
20260507132145 9 144 3.2 8.0 0.00 0.00 0.00 70 1007.7
20260507131909 9 199 1.6 6.4 0.00 0.00 0.00 71 1007.7
20260507131133 9 249 1.6 4.8 0.00 0.00 0.00 73 1007.6
20260507130626 8 319 3.2 6.4 0.00 0.00 0.00 72 1007.6
20260507130120 8 340 3.2 6.4 0.00 0.00 0.00 72 1007.6
20260507125615 8 355 3.2 6.4 0.00 0.00 0.00 72 1007.6
20260507125109 8 205 3.2 9.7 0.00 0.00 0.00 72 1007.6
20260507124834 8 182 1.6 9.7 0.00 0.00 0.00 73 1007.7
20260507124057 8 263 1.6 6.4 0.00 0.00 0.00 73 1007.7
20260507123555 8 273 1.6 4.8 0.00 0.00 0.00 74 1007.7
20260507123312 8 344 1.6 6.4 0.00 0.00 0.00 76 1007.7
20260507122534 7 188 3.2 8.0 0.00 0.00 0.00 76 1007.6
20260507122030 7 182 1.6 8.0 0.00 0.00 0.00 77 1007.7
20260507121523 7 207 1.6 6.4 0.00 0.00 0.00 77 1007.6
20260507121017 7 180 1.6 6.4 0.00 0.00 0.00 78 1007.7
20260507120743 7 145 0.0 4.8 0.00 0.00 0.00 79 1007.6
20260507120005 7 202 0.0 4.8 0.00 0.00 0.00 80 1007.6
20260507115505 6 180 0.0 4.8 0.00 0.00 0.00 80 1007.6
20260507115005 6 331 0.0 3.2 0.00 0.00 0.00 81 1007.5
20260507114735 6 331 0.0 3.2 0.00 0.00 0.00 82 1007.5
20260507114235 6 173 0.0 1.6 0.00 0.00 0.00 82 1007.5
20260507113504 6 173 0.0 1.6 0.00 0.00 0.00 83 1007.4
20260507113006 6 173 0.0 1.6 0.00 0.00 0.00 83 1007.4
20260507112503 6 142 0.0 4.8 0.00 0.00 0.00 84 1007.3
20260507112005 5 202 0.0 4.8 0.00 0.00 0.00 84 1007.3
20260507111509 5 202 0.0 0.0 0.00 0.00 0.00 85 1007.4
20260507111236 5 202 0.0 0.0 0.00 0.00 0.00 85 1007.3
20260507110503 5 202 0.0 0.0 0.00 0.00 0.00 85 1007.3
20260507110005 5 202 0.0 0.0 0.00 0.00 0.00 86 1007.2
20260507105504 5 202 0.0 0.0 0.00 0.00 0.00 85 1007.1
20260507105004 5 202 0.0 0.0 0.00 0.00 0.00 86 1007.1
20260507104504 5 202 0.0 0.0 0.00 0.00 0.00 86 1007.1
20260507104004 5 202 0.0 0.0 0.00 0.00 0.00 86 1007.0
20260507103729 5 202 0.0 0.0 0.00 0.00 0.00 86 1007.0
20260507102958 5 202 0.0 0.0 0.00 0.00 0.00 86 1007.0
20260507102731 5 202 0.0 0.0 0.00 0.00 0.00 86 1007.0
20260507101959 5 202 0.0 0.0 0.00 0.00 0.00 86 1006.9
20260507101456 5 202 0.0 0.0 0.00 0.00 0.00 86 1006.9
20260507100956 5 202 0.0 0.0 0.00 0.00 0.00 86 1007.0
20260507100728 5 202 0.0 0.0 0.00 0.00 0.00 86 1007.0
20260507100008 5 202 0.0 3.2 0.00 0.00 0.00 86 1007.0
20260507095956 5 202 0.0 0.0 0.00 0.00 0.00 86 1007.0
20260507094952 5 202 0.0 3.2 0.00 0.03 0.00 86 1007.0
20260507094454 5 135 0.0 1.6 0.00 0.03 0.00 86 1007.0
20260507093950 5 135 0.0 0.0 0.00 0.03 0.00 86 1007.0
20260507093724 5 135 0.0 0.0 0.00 0.05 0.00 85 1006.9
20260507092948 5 135 0.0 0.0 0.00 0.05 0.00 85 1006.9
20260507092720 5 135 0.0 0.0 0.00 0.08 0.00 85 1007.0
20260507091949 5 135 0.0 3.2 0.00 0.08 0.00 86 1007.0
20260507091445 5 135 0.0 3.2 0.00 0.10 0.00 86 1007.0
20260507090946 5 171 0.0 1.6 0.00 0.10 0.00 86 1007.0
20260507090445 5 171 0.0 0.0 0.00 0.10 0.00 86 1007.1
20260507085946 5 171 0.0 0.0 0.00 0.10 0.00 87 1007.0
20260507085447 5 171 0.0 1.6 0.00 0.10 0.00 87 1007.0
20260507084947 5 171 0.0 3.2 0.00 0.10 0.00 87 1007.0
20260507084441 5 171 0.0 3.2 0.00 0.13 0.00 88 1007.1
20260507083941 5 111 0.0 0.0 0.00 0.13 0.00 88 1007.1
20260507083441 5 111 0.0 1.6 0.00 0.15 0.00 88 1007.2
20260507083212 5 111 0.0 1.6 0.00 0.15 0.00 88 1007.2
20260507082443 5 89 0.0 1.6 0.00 0.18 0.00 88 1007.2
20260507081942 5 121 0.0 1.6 0.00 0.20 0.00 88 1007.2
20260507081442 5 121 0.0 1.6 0.00 0.25 0.00 88 1007.2
20260507080942 5 219 0.0 3.2 0.00 0.28 0.00 87 1007.3
20260507080443 5 165 0.0 3.2 0.00 0.28 0.00 87 1007.2
20260507075942 5 223 0.0 0.0 0.00 0.30 0.00 87 1007.2
20260507075443 5 223 0.0 3.2 0.00 0.30 0.00 87 1007.2
20260507075213 5 223 0.0 3.2 0.00 0.33 0.00 87 1007.2
20260507074442 5 162 0.0 3.2 0.00 0.33 0.00 87 1007.2
20260507073948 5 130 0.0 3.2 0.00 0.36 0.00 87 1007.2
20260507073941 5 159 0.0 3.2 0.00 0.33 0.00 87 1007.2
20260507072942 5 130 0.0 3.2 0.00 0.38 0.00 88 1007.3
20260507072441 5 155 0.0 4.8 0.00 0.38 0.00 87 1007.2
20260507071940 5 155 0.0 4.8 0.00 0.41 0.00 88 1007.3
20260507071433 5 178 0.0 1.6 0.00 0.41 0.00 88 1007.3
20260507070927 5 161 0.0 3.2 0.00 0.41 0.00 88 1007.3
20260507070423 5 161 0.0 3.2 0.00 0.43 0.00 88 1007.4
20260507065916 4 142 0.0 3.2 0.00 0.43 0.00 87 1007.4
20260507065410 4 145 0.0 1.6 0.00 0.43 0.00 87 1007.4
20260507064904 4 145 0.0 1.6 0.00 0.43 0.00 87 1007.5
20260507064358 5 145 0.0 1.6 0.00 0.46 0.00 87 1007.5
20260507063852 5 132 0.0 0.0 0.00 0.46 0.00 87 1007.4
20260507063346 5 132 0.0 0.0 0.00 0.46 0.00 87 1007.5
20260507062840 5 117 0.0 0.0 0.00 0.46 0.00 87 1007.6
20260507062334 5 117 0.0 0.0 0.00 0.46 0.00 87 1007.8
20260507061835 5 117 0.0 0.0 0.00 0.48 0.00 87 1007.8
20260507061331 5 111 0.0 0.0 0.00 0.48 0.00 86 1007.8
20260507060832 5 111 0.0 0.0 0.00 0.48 0.00 86 1007.8
20260507060333 5 111 0.0 1.6 0.00 0.48 0.00 86 1007.8
20260507055833 5 140 0.0 1.6 0.00 0.51 0.00 86 1007.8
20260507055332 5 59 0.0 3.2 0.00 0.51 0.00 85 1007.8